OPS 4682 DEB, 15529

Orbit data source: Space-Track

OPS 4682 DEB, 15529 is space debris in LEO originally from a launch on Sat, 03 Apr 1965 UTC launched from the Air Force Western Test Range (AFWTR). Debris objects in space refer to the collection of defunct objects orbiting the Earth. Examples of debris include non-operational satellites, rocket bodies, and fragments generated from explosions, collisions, or faulty payload assembly.

Loading next visibility...
Identifier
15529, 1965-027S
Orbit
LEO
Country
Flag of USUS
Related business
Manufacturer
Unknown
Mission
Spacecraft
Bus & Motor
Unknown
Mass
Unknown
Launch date (UTC)
1965-04-03 (61 years ago)
Launch vehicle
Unknown
Launch site
Air Force Western Test Range (AFWTR)
Object type
Payload
Rocket body
Debris
Shape & HBR
Unknown shape, 0.1 m
Radar Cross Section
Small (<0.1 m²)

Expand to show TLE details & history
Last TLE update: 1 day ago

TLE from 1 day ago
0 OPS 4682 DEB
1 15529U 65027S   26035.35927207 -.00000295  00000-0 -10139-2 0  9997
2 15529  90.2374   3.3742 0031821 332.3896 181.8429 12.99209417139838
Epoch: 2026-02-04T08:37Z
TLE epoch observation values (Epoch: 2026-02-04T08:37:21.106Z)
Latitude
25.80746°
Longitude
-80.3765°
Altitude
1,292.629 km
Speed
7.201 km/s
True Right ascension
12h 13m 57s
True Declination
25° 40' 56"
Sunlit
Object was in full shadow at epoch
Visualization orbit readout
Latitude
Unknown
Longitude
Unknown
Altitude
Unknown
Speed
Unknown
Apparent Right ascension
Unknown
Apparent Declination
Unknown
Sunlit
N/A
Visualization observer readout
Local Sidereal Time
10:24:58
Azimuth
Unknown
Elevation
Unknown
Doppler factor
Unknown
Orbital elements
Apogee altitude
1,286.627 km
Perigee altitude
1,238.001 km
Semi-major axis
7,640.451 km
Eccentricity
0.00318
Inclination
90.2374°
RAAN
3.3742°
Arg. of periapsis
332.3896°
True anomaly
181.83122°
Mean anomaly
181.8429°
Eccentric anomaly
181.83706°
Mean motion
3.24986 °/min
Orbital period
110.77 mins
BSTAR
-0.0010139
Loading maneuver chart data...
Computing Atmospheric mass density...
Loading historical data...
Loading historical data...
Loading historical data...
Loading historical data...
Loading historical data...
Loading historical data...
Loading historical data...

Documentation

Showing up to 5 results
|